Evansville, IN

2:39 AM CST on January 23, 2017 (GMT -0600)
Evansville Regional

Weather History for KEVV - October, 2011

Change the Weather History Date:

Friday, October 28, 2011

  Actual Average Record
Temperature  
Mean Temperature 47 °F 54 °F  
Max Temperature 56 °F 65 °F 85 °F (1927)
Min Temperature 37 °F 42 °F 24 °F (1976)
Degree Days  
Heating Degree Days 18 11  
Month to date heating degree days 202 221  
Since 1 July heating degree days 248 268  
Cooling Degree Days 0 0  
Month to date cooling degree days 13 28  
Year to date cooling degree days 1643 1394  
Moisture  
Dew Point 36 °F    
Average Humidity 64    
Maximum Humidity 86    
Minimum Humidity 41    
Precipitation  
Precipitation 0.00 in 0.11 in 1.16 in (1984)
Month to date precipitation 2.49 2.91  
Year to date precipitation 55.67 36.88  
Snow  
Snow 0.00 in 0.00 in 0.00 in (2002)
Month to date snowfall 0.0 0.2  
Since 1 July snowfall 0.0 0.2  
Since 1 September snowfall 0.0 0.2  
Snow Depth 0.00 in    
Sea Level Pressure  
Sea Level Pressure 30.16 in    
Wind  
Wind Speed 4 mph (NNE)    
Max Wind Speed 13 mph    
Max Gust Speed 18 mph    
Visibility 10 miles    
Events      
T = Trace of Precipitation, MM = Missing Value Source: NWS Daily Summary

Daily Weather History Graph

Daily Weather History Graph

Search for Another Location

Airport or City:

Trip Planner

Search our weather history database for the weather conditions in past years. The results will help you decide how hot, cold, wet, or windy it might be!

Date:

Astronomy

Oct. 28, 2011 Rise Set
Actual Time 7:11 AM CDT 5:55 PM CDT
Civil Twilight 6:44 AM CDT 6:22 PM CDT
Nautical Twilight 6:13 AM CDT 6:53 PM CDT
Astronomical Twilight 5:42 AM CDT 7:24 PM CDT
Moon 9:23 AM CDT (10/28) 7:21 PM CDT (10/28)
Length of Visible Light 11h 38m
Length of Day
10h 44m
Waxing Crescent, 5% of the Moon is Illuminated
Oct 28
Waxing Crescent
Nov 2
First Quarter
Nov 10
Full
Nov 18
Last Quarter
Nov 25
New

Hourly Weather History & Observations

Time (CDT) Temp. Windchill Dew Point Humidity Pressure Visibility Wind Dir Wind Speed Gust Speed Precip Events Conditions
12:54 AM 41.0 °F - 36.0 °F 82% 30.15 in 10.0 mi Calm Calm - N/A   Clear
1:54 AM 41.0 °F 39.0 °F 37.0 °F 86% 30.14 in 10.0 mi NNE 3.5 mph - N/A   Clear
2:54 AM 43.0 °F 41.3 °F 37.9 °F 82% 30.15 in 10.0 mi NNE 3.5 mph - N/A   Scattered Clouds
3:54 AM 43.0 °F 40.3 °F 37.9 °F 82% 30.14 in 10.0 mi NNE 4.6 mph - N/A   Overcast
4:54 AM 42.8 °F 40.1 °F 37.4 °F 81% 30.15 in 10.0 mi NNE 4.6 mph - N/A   Mostly Cloudy
5:54 AM 43.0 °F 41.3 °F 37.9 °F 82% 30.19 in 10.0 mi NNE 3.5 mph - N/A   Partly Cloudy
6:54 AM 42.1 °F 38.4 °F 37.9 °F 85% 30.18 in 9.0 mi NE 5.8 mph - N/A   Clear
7:54 AM 43.0 °F 40.3 °F 37.9 °F 82% 30.19 in 8.0 mi NE 4.6 mph - N/A   Clear
8:54 AM 44.1 °F 40.8 °F 39.0 °F 82% 30.19 in 10.0 mi NNE 5.8 mph - N/A   Scattered Clouds
9:54 AM 46.0 °F 43.1 °F 39.0 °F 76% 30.20 in 10.0 mi NE 5.8 mph - N/A   Clear
10:54 AM 48.0 °F - 37.0 °F 66% 30.20 in 10.0 mi NE 6.9 mph - N/A   Clear
11:54 AM 51.1 °F - 35.1 °F 54% 30.18 in 10.0 mi NE 9.2 mph - N/A   Clear
12:54 PM 53.1 °F - 34.0 °F 48% 30.17 in 10.0 mi Variable 5.8 mph - N/A   Scattered Clouds
1:54 PM 53.6 °F - 33.8 °F 47% 30.14 in 10.0 mi North 8.1 mph - N/A   Mostly Cloudy
2:54 PM 54.0 °F - 33.1 °F 45% 30.13 in 10.0 mi North 10.4 mph 16.1 mph N/A   Mostly Cloudy
3:54 PM 54.0 °F - 33.1 °F 45% 30.12 in 10.0 mi NNE 5.8 mph - N/A   Mostly Cloudy
4:54 PM 53.1 °F - 30.0 °F 41% 30.12 in 10.0 mi NNE 5.8 mph - N/A   Clear
5:54 PM 50.0 °F - 32.0 °F 50% 30.13 in 10.0 mi Calm Calm - N/A   Scattered Clouds
6:54 PM 44.1 °F - 33.1 °F 65% 30.14 in 10.0 mi Calm Calm - N/A   Clear
7:54 PM 44.6 °F - 35.6 °F 71% 30.14 in 10.0 mi Calm Calm - N/A   Overcast
8:54 PM 43.0 °F - 36.0 °F 76% 30.15 in 10.0 mi Calm Calm - N/A   Mostly Cloudy
9:54 PM 41.0 °F - 35.1 °F 79% 30.15 in 10.0 mi Calm Calm - N/A   Scattered Clouds
10:54 PM 39.9 °F - 35.1 °F 83% 30.16 in 10.0 mi Calm Calm - N/A   Scattered Clouds
11:54 PM 39.0 °F - 34.0 °F 82% 30.14 in 10.0 mi Calm Calm - N/A   Clear